AXM6153 WMKK-WMKP

Flight info

Callsign AXM6153
Flight time 0h 34m
Altitude 24000
Route ATIMU2F ATIMU DCT TEPUS GORVU1E
Aircraft A20N/M-SDE2E3FGHIRWXY/LB1

Departure

Time 2026-05-06 15:37
Airport Kuala Lumpur International Airport (WMKK)

Arrival

Time 2026-05-06 16:11
Airport Penang International Airport (WMKP)
Time Latitude Longitude Altitude Speed Heading
2026-05-06 15:07 2.74017 101.68450 42 ft 0 kts 326°
2026-05-06 15:10 2.74018 101.68450 42 ft 0 kts 326°
2026-05-06 15:18 2.74017 101.68450 41 ft 0 kts 326°
2026-05-06 15:22 2.74017 101.68451 41 ft 1 kts 326°
2026-05-06 15:23 2.74006 101.68458 41 ft 2 kts 326°
2026-05-06 15:23 2.73994 101.68466 41 ft 3 kts 326°
2026-05-06 15:23 2.73978 101.68477 41 ft 3 kts 326°
2026-05-06 15:23 2.73962 101.68488 41 ft 3 kts 321°
2026-05-06 15:24 2.73950 101.68502 41 ft 3 kts 285°
2026-05-06 15:24 2.73949 101.68521 40 ft 3 kts 244°
2026-05-06 15:24 2.73955 101.68532 41 ft 0 kts 236°
2026-05-06 15:27 2.73955 101.68531 39 ft 1 kts 236°
2026-05-06 15:28 2.73940 101.68508 41 ft 9 kts 237°
2026-05-06 15:28 2.73900 101.68444 41 ft 13 kts 239°
2026-05-06 15:28 2.73845 101.68363 41 ft 15 kts 234°
2026-05-06 15:28 2.73782 101.68274 41 ft 16 kts 235°
2026-05-06 15:29 2.73715 101.68173 39 ft 19 kts 238°
2026-05-06 15:29 2.73675 101.68066 37 ft 14 kts 292°
2026-05-06 15:29 2.73737 101.68015 37 ft 10 kts 313°
2026-05-06 15:29 2.73753 101.67998 37 ft 0 kts
2026-05-06 15:30 2.73754 101.68003 37 ft 0 kts 67°
2026-05-06 15:30 2.73745 101.68011 37 ft 4 kts 130°
2026-05-06 15:30 2.73697 101.68045 37 ft 15 kts 149°
2026-05-06 15:30 2.73596 101.68105 37 ft 19 kts 146°
2026-05-06 15:31 2.73484 101.68185 37 ft 21 kts 146°
2026-05-06 15:31 2.73358 101.68264 38 ft 22 kts 148°
2026-05-06 15:31 2.73227 101.68351 36 ft 23 kts 142°
2026-05-06 15:32 2.72967 101.68528 38 ft 25 kts 145°
2026-05-06 15:32 2.72822 101.68632 38 ft 26 kts 147°
2026-05-06 15:32 2.72666 101.68733 38 ft 27 kts 144°
2026-05-06 15:32 2.72509 101.68842 38 ft 28 kts 148°
2026-05-06 15:33 2.72344 101.68949 38 ft 29 kts 146°
2026-05-06 15:33 2.72178 101.69062 39 ft 29 kts 145°
2026-05-06 15:33 2.72010 101.69177 39 ft 30 kts 146°
2026-05-06 15:33 2.71839 101.69294 39 ft 30 kts 146°
2026-05-06 15:34 2.71664 101.69412 38 ft 31 kts 146°
2026-05-06 15:34 2.71485 101.69532 38 ft 31 kts 146°
2026-05-06 15:34 2.71305 101.69655 38 ft 32 kts 146°
2026-05-06 15:34 2.71126 101.69777 38 ft 32 kts 146°
2026-05-06 15:35 2.70993 101.69857 39 ft 17 kts 159°
2026-05-06 15:35 2.70933 101.69841 37 ft 0 kts 229°
2026-05-06 15:35 2.70928 101.69835 38 ft 3 kts 230°
2026-05-06 15:36 2.70911 101.69812 39 ft 7 kts 236°
2026-05-06 15:36 2.70901 101.69736 37 ft 14 kts 291°
2026-05-06 15:36 2.70975 101.69664 37 ft 17 kts 325°
2026-05-06 15:36 2.71235 101.69487 37 ft 77 kts 326°
2026-05-06 15:37 2.71836 101.69084 39 ft 129 kts 326°
2026-05-06 15:37 2.72695 101.68494 46 ft 168 kts 325°
2026-05-06 15:37 2.73630 101.67833 594 ft 162 kts 325°
2026-05-06 15:37 2.74605 101.67146 856 ft 183 kts 326°
2026-05-06 15:38 2.75677 101.66396 1294 ft 185 kts 324°
2026-05-06 15:38 2.76446 101.65432 1935 ft 179 kts 287°
2026-05-06 15:38 2.76508 101.64156 2220 ft 194 kts 259°
2026-05-06 15:38 2.76243 101.62762 2478 ft 215 kts 258°
2026-05-06 15:39 2.76051 101.61189 2764 ft 240 kts 265°
2026-05-06 15:39 2.76024 101.59450 3168 ft 260 kts 271°
2026-05-06 15:39 2.76120 101.57612 3686 ft 273 kts 274°
2026-05-06 15:39 2.76424 101.55706 4464 ft 276 kts 285°
2026-05-06 15:40 2.77100 101.53897 5230 ft 279 kts 295°
2026-05-06 15:40 2.77894 101.52140 5979 ft 282 kts 294°
2026-05-06 15:40 2.78690 101.50340 6713 ft 285 kts 294°
2026-05-06 15:40 2.79489 101.48512 7392 ft 289 kts 295°
2026-05-06 15:41 2.80621 101.46846 8060 ft 292 kts 310°
2026-05-06 15:41 2.81965 101.45304 8747 ft 295 kts 311°
2026-05-06 15:41 2.83335 101.43758 9439 ft 299 kts 311°
2026-05-06 15:41 2.84723 101.42191 10073 ft 303 kts 311°
2026-05-06 15:42 2.86158 101.40563 10343 ft 322 kts 311°
2026-05-06 15:42 2.87680 101.38830 10521 ft 342 kts 311°
2026-05-06 15:42 2.89283 101.37000 10851 ft 354 kts 311°
2026-05-06 15:42 2.90910 101.35140 11463 ft 357 kts 311°
2026-05-06 15:43 2.92554 101.33260 12091 ft 360 kts 311°
2026-05-06 15:43 2.94210 101.31367 12709 ft 363 kts 312°
2026-05-06 15:43 2.95883 101.29453 13296 ft 367 kts 312°
2026-05-06 15:43 2.97571 101.27522 13874 ft 370 kts 312°
2026-05-06 15:44 2.99275 101.25573 14383 ft 374 kts 312°
2026-05-06 15:44 3.00998 101.23602 14898 ft 377 kts 312°
2026-05-06 15:44 3.02732 101.21618 15399 ft 381 kts 312°
2026-05-06 15:44 3.04484 101.19614 15893 ft 384 kts 312°
2026-05-06 15:45 3.06251 101.17592 16372 ft 388 kts 312°
2026-05-06 15:45 3.08034 101.15552 16854 ft 391 kts 312°
2026-05-06 15:45 3.09831 101.13496 17326 ft 394 kts 312°
2026-05-06 15:45 3.11830 101.11623 17770 ft 395 kts 327°
2026-05-06 15:46 3.14276 101.10401 18201 ft 394 kts 345°
2026-05-06 15:46 3.16939 101.09726 18589 ft 396 kts 349°
2026-05-06 15:46 3.19634 101.09127 18998 ft 398 kts 349°
2026-05-06 15:46 3.22348 101.08529 19395 ft 401 kts 349°
2026-05-06 15:47 3.25077 101.07916 19791 ft 403 kts 349°
2026-05-06 15:47 3.27821 101.07288 20174 ft 406 kts 349°
2026-05-06 15:47 3.30541 101.06659 20561 ft 408 kts 349°
2026-05-06 15:47 3.33353 101.06005 20946 ft 411 kts 349°
2026-05-06 15:48 3.36110 101.05362 21322 ft 413 kts 349°
2026-05-06 15:48 3.38917 101.04708 21704 ft 416 kts 349°
2026-05-06 15:48 3.41743 101.04049 22068 ft 418 kts 349°
2026-05-06 15:48 3.44585 101.03386 22437 ft 421 kts 349°
2026-05-06 15:49 3.47446 101.02719 22796 ft 423 kts 349°
2026-05-06 15:49 3.50320 101.02049 23155 ft 425 kts 349°
2026-05-06 15:49 3.53211 101.01374 23503 ft 428 kts 349°
2026-05-06 15:49 3.56114 101.00697 23758 ft 430 kts 349°
2026-05-06 15:50 3.59037 101.00015 23849 ft 431 kts 349°
2026-05-06 15:50 3.61950 100.99335 23866 ft 431 kts 349°
2026-05-06 15:50 3.64870 100.98653 23863 ft 430 kts 348°
2026-05-06 15:50 3.67746 100.97808 23872 ft 432 kts 341°
2026-05-06 15:51 3.70502 100.96641 23864 ft 434 kts 337°
2026-05-06 15:51 3.72370 100.95800 23861 ft 434 kts 338°
2026-05-06 15:51 3.74949 100.94648 23860 ft 433 kts 338°
2026-05-06 15:51 3.77703 100.93423 23866 ft 433 kts 338°
2026-05-06 15:52 3.80456 100.92200 23866 ft 433 kts 338°
2026-05-06 15:52 3.83220 100.90971 23866 ft 433 kts 338°
2026-05-06 15:52 3.85973 100.89746 23865 ft 433 kts 338°
2026-05-06 15:52 3.88727 100.88521 23864 ft 433 kts 338°
2026-05-06 15:53 3.91485 100.87293 23869 ft 433 kts 338°
2026-05-06 15:53 3.93309 100.86481 23814 ft 434 kts 338°
2026-05-06 15:53 3.96992 100.84842 23530 ft 432 kts 338°
2026-05-06 15:53 3.99728 100.83623 23294 ft 429 kts 338°
2026-05-06 15:54 4.02453 100.82409 23035 ft 427 kts 338°
2026-05-06 15:54 4.05163 100.81203 22776 ft 426 kts 338°
2026-05-06 15:54 4.06953 100.80405 22620 ft 424 kts 338°
2026-05-06 15:54 4.10507 100.78822 22114 ft 420 kts 338°
2026-05-06 15:55 4.12303 100.78022 21943 ft 417 kts 338°
2026-05-06 15:55 4.15812 100.76459 21684 ft 418 kts 338°
2026-05-06 15:55 4.18475 100.75277 21485 ft 418 kts 338°
2026-05-06 15:55 4.21136 100.74114 21288 ft 416 kts 338°
2026-05-06 15:56 4.22926 100.73337 21161 ft 415 kts 338°
2026-05-06 15:56 4.25573 100.72189 20969 ft 413 kts 338°
2026-05-06 15:56 4.28206 100.71045 20775 ft 412 kts 338°
2026-05-06 15:56 4.31683 100.69533 20528 ft 411 kts 338°
2026-05-06 15:57 4.33453 100.68761 20357 ft 410 kts 338°
2026-05-06 15:57 4.36067 100.67622 19948 ft 408 kts 338°
2026-05-06 15:57 4.38654 100.66494 19492 ft 403 kts 338°
2026-05-06 15:57 4.41217 100.65376 19040 ft 400 kts 338°
2026-05-06 15:58 4.43765 100.64266 18597 ft 398 kts 338°
2026-05-06 15:58 4.46298 100.63162 18157 ft 396 kts 338°
2026-05-06 15:58 4.48810 100.62066 17670 ft 393 kts 338°
2026-05-06 15:58 4.51275 100.60992 17171 ft 391 kts 338°
2026-05-06 15:59 4.53797 100.59892 16672 ft 389 kts 338°
2026-05-06 15:59 4.56265 100.58816 16176 ft 386 kts 338°
2026-05-06 15:59 4.58684 100.57760 15717 ft 382 kts 338°
2026-05-06 15:59 4.61113 100.56701 15228 ft 380 kts 338°
2026-05-06 16:00 4.63541 100.55642 14659 ft 380 kts 338°
2026-05-06 16:00 4.65967 100.54584 14085 ft 381 kts 338°
2026-05-06 16:00 4.68397 100.53525 13503 ft 381 kts 338°
2026-05-06 16:00 4.70821 100.52468 12869 ft 380 kts 338°
2026-05-06 16:01 4.73252 100.51408 12266 ft 380 kts 338°
2026-05-06 16:01 4.75672 100.50353 11665 ft 380 kts 338°
2026-05-06 16:01 4.78092 100.49298 11067 ft 379 kts 337°
2026-05-06 16:01 4.80488 100.48208 10483 ft 378 kts 332°
2026-05-06 16:02 4.82651 100.46714 9917 ft 378 kts 319°
2026-05-06 16:02 4.84429 100.44785 9302 ft 377 kts 308°
2026-05-06 16:02 4.86011 100.42689 8682 ft 376 kts 307°
2026-05-06 16:02 4.87586 100.40611 8130 ft 373 kts 308°
2026-05-06 16:03 4.89148 100.38558 7654 ft 368 kts 308°
2026-05-06 16:03 4.90692 100.36530 7226 ft 362 kts 308°
2026-05-06 16:03 4.92196 100.34556 6873 ft 350 kts 308°
2026-05-06 16:03 4.93647 100.32650 6529 ft 338 kts 308°
2026-05-06 16:04 4.95051 100.30806 6170 ft 327 kts 307°
2026-05-06 16:04 4.96413 100.29018 5786 ft 318 kts 307°
2026-05-06 16:04 4.97748 100.27264 5235 ft 315 kts 307°
2026-05-06 16:04 4.99075 100.25520 4646 ft 314 kts 307°
2026-05-06 16:05 5.00398 100.23783 4033 ft 313 kts 307°
2026-05-06 16:05 5.01716 100.22053 3461 ft 311 kts 307°
2026-05-06 16:05 5.02995 100.20387 3202 ft 297 kts 310°
2026-05-06 16:05 5.04462 100.18994 3116 ft 278 kts 324°
2026-05-06 16:06 5.06080 100.18031 3112 ft 269 kts 333°
2026-05-06 16:06 5.07719 100.17189 3071 ft 260 kts 332°
2026-05-06 16:06 5.09293 100.16361 2910 ft 252 kts 332°
2026-05-06 16:06 5.10818 100.15553 2770 ft 246 kts 332°
2026-05-06 16:07 5.12366 100.14750 2526 ft 253 kts 336°
2026-05-06 16:07 5.14073 100.14439 2264 ft 250 kts
2026-05-06 16:07 5.15673 100.15015 2059 ft 243 kts 36°
2026-05-06 16:07 5.16978 100.16066 2005 ft 235 kts 44°
2026-05-06 16:08 5.18131 100.17153 1994 ft 219 kts 44°
2026-05-06 16:08 5.19219 100.18137 2032 ft 201 kts 44°
2026-05-06 16:08 5.20209 100.19039 1998 ft 182 kts 44°
2026-05-06 16:08 5.21107 100.19854 1938 ft 168 kts 44°
2026-05-06 16:09 5.21950 100.20621 1716 ft 159 kts 44°
2026-05-06 16:09 5.22767 100.21364 1541 ft 155 kts 44°
2026-05-06 16:09 5.23539 100.22064 1318 ft 144 kts 44°
2026-05-06 16:09 5.24289 100.22748 1141 ft 149 kts 44°
2026-05-06 16:10 5.25058 100.23446 951 ft 149 kts 44°
2026-05-06 16:10 5.25806 100.24126 779 ft 146 kts 44°
2026-05-06 16:10 5.26555 100.24806 617 ft 146 kts 43°
2026-05-06 16:10 5.27303 100.25487 424 ft 145 kts 44°
2026-05-06 16:11 5.28043 100.26159 228 ft 143 kts 44°
2026-05-06 16:11 5.28780 100.26830 45 ft 144 kts 44°
2026-05-06 16:11 5.29464 100.27453 17 ft 109 kts 41°
2026-05-06 16:11 5.29814 100.27767 20 ft 36 kts 38°
2026-05-06 16:12 5.29984 100.27852 20 ft 18 kts
2026-05-06 16:12 5.30084 100.27856 19 ft 17 kts
2026-05-06 16:12 5.30100 100.27856 19 ft 1 kts
2026-05-06 16:12 5.30150 100.27860 19 ft 12 kts 16°
2026-05-06 16:13 5.30186 100.27893 20 ft 5 kts 339°
2026-05-06 16:13 5.30189 100.27881 18 ft 4 kts 270°
2026-05-06 16:13 5.30152 100.27828 18 ft 15 kts 221°
2026-05-06 16:13 5.30046 100.27731 19 ft 26 kts 225°
2026-05-06 16:14 5.29894 100.27588 18 ft 34 kts 225°
2026-05-06 16:14 5.29705 100.27413 18 ft 40 kts 223°
2026-05-06 16:14 5.29490 100.27224 18 ft 41 kts 221°
2026-05-06 16:14 5.29357 100.27101 18 ft 17 kts 222°
2026-05-06 16:15 5.29374 100.27005 18 ft 16 kts 299°
2026-05-06 16:15 5.29355 100.26905 18 ft 17 kts 225°
2026-05-06 16:15 5.29253 100.26813 19 ft 21 kts 220°
2026-05-06 16:15 5.29138 100.26712 18 ft 16 kts 219°
2026-05-06 16:16 5.29118 100.26644 19 ft 13 kts 304°
2026-05-06 16:16 5.29161 100.26597 18 ft 1 kts 313°
2026-05-06 16:16 5.29163 100.26595 18 ft 0 kts 312°